Temp
3 3 3 5 6 6 6 5 4 4 4 4 4 1 7 10 10 9 8 9 8 8 8 8 9 10 10 9 9 8 9 8 5 9 10 10 10 10 10 9 8 7 7 10
3 3 3 3 6 6 6 5 4 4 3 3 3 6 9 9 9 8 9 8 9 10 9 8 9 10 10 9 9 9 8 7 5 8 8 9 9 11 11 10 7 8 8 10
3 3 3 3 4 5 6 6 3 2 2 3 4 7 8 8 9 9 9 9 9 9 8 8 8 9 10 9 9 9 8 7 7 5 8 7 8 10 11 10 7 9 9 10
3 3 3 3 4 4 5 6 5 6 3 3 4 7 8 9 9 8 9 8 8 8 8 8 9 8 9 9 9 8 8 7 7 7 7 8 8 9 10 11 10 9 10 10
4 3 3 3 3 3 4 6 6 7 7 9 4 6 7 8 8 7 8 7 8 8 7 8 7 7 8 8 7 9 8 7 8 6 8 7 7 8 9 10 11 10 11 12
4 3 3 2 2 3 4 6 6 7 7 6 6 6 7 9 9 10 10 8 8 7 7 7 7 7 7 7 7 7 7 6 5 6 7 7 7 8 9 10 10 12 12 12
4 3 3 3 2 3 5 5 6 6 5 6 6 9 9 9 8 8 9 8 8 8 7 7 7 7 6 6 6 6 6 7 4 4 6 6 9 9 9 11 11 11 12 12
4 3 3 3 2 2 3 5 6 6 5 7 8 9 8 9 8 7 8 8 7 7 7 5 5 5 6 7 6 6 5 6 5 5 5 7 10 10 10 10 11 9 11 11
4 3 3 3 2 2 3 4 5 5 5 6 8 9 9 6 5 5 6 6 6 6 5 5 7 6 8 7 6 6 6 5 5 5 7 8 10 9 9 9 10 8 9 9
3 3 3 3 3 2 3 4 4 4 5 7 8 7 7 9 7 4 5 5 5 6 4 6 6 6 7 6 7 5 4 5 5 5 5 7 9 8 9 11 10 8 8 8
3 3 3 3 3 3 2 3 4 4 5 6 7 7 8 8 7 5 6 5 4 3 5 5 6 6 6 6 7 5 5 4 4 4 5 5 9 9 10 8 8 8 7 7
4 3 3 3 3 3 2 2 3 3 4 5 5 6 7 6 7 8 6 6 6 6 4 4 4 6 5 6 7 6 6 6 6 5 6 8 9 9 9 10 9 8 7 7
3 4 3 3 3 3 3 2 3 3 3 4 5 6 7 6 6 6 7 6 7 7 7 5 4 5 5 6 6 8 7 6 6 7 8 7 9 9 10 9 9 8 8 7
2 3 4 4 3 3 3 2 3 3 4 3 4 5 4 5 5 5 6 6 6 6 6 5 3 4 6 5 5 5 7 6 5 5 6 8 9 10 9 9 8 8 7 7
2 3 4 4 3 3 3 2 2 3 4 3 4 4 4 4 4 4 4 5 5 5 5 2 3 4 4 3 3 2 5 6 7 7 8 8 8 9 9 9 9 8 7 7
2 3 4 4 3 3 3 2 2 3 3 4 2 3 2 3 3 3 3 4 4 5 5 3 5 5 4 2 3 7 8 9 10 9 9 9 8 8 8 8 8 7 7 7
2 3 4 4 3 3 2 2 3 3 2 3 2 1 0 1 1 1 2 2 3 4 5 3 4 4 4 1 3 8 10 10 9 9 9 8 8 8 8 8 7 6 6 5
2 3 4 4 3 3 2 2 2 2 2 3 1 1 -0 0 1 1 1 2 2 3 3 3 2 2 1 1 4 7 8 9 9 8 8 9 9 8 7 7 6 6 6 5
1 2 3 3 2 2 2 2 1 2 2 2 0 0 0 0 1 1 1 2 -1 1 -0 0 1 0 1 4 5 7 8 8 8 7 7 7 7 7 7 6 5 6 5 5
0 2 2 0 1 1 2 1 1 1 1 1 1 1 -0 1 1 0 0 0 -0 -2 0 1 -1 0 4 5 6 6 6 7 7 6 5 5 6 6 6 6 6 6 5 5
-1 0 0 1 1 1 0 -0 -0 -0 0 0 1 2 -1 1 1 1 1 -2 -2 -2 -0 -0 -0 1 3 4 4 4 4 6 7 7 7 7 8 7 6 6 5 5 5 5
-1 -1 -1 -0 0 -0 -0 0 -0 1 1 0 0 0 1 1 2 1 -0 -0 -2 -1 -1 -1 -0 1 3 3 3 4 4 4 5 5 6 7 7 6 6 6 5 5 5 4
-1 -1 -0 -1 -1 1 1 1 1 1 0 -1 -1 -1 1 1 1 -0 -0 1 1 -1 -1 -1 -0 1 2 2 3 3 3 3 4 4 5 6 6 6 5 5 5 4 4 4
-2 -2 -1 -1 -1 -0 -1 0 1 -1 0 -0 1 -1 -0 -1 -0 -1 1 0 -1 -1 -1 -1 -1 1 1 2 2 3 3 3 3 4 4 5 5 5 5 4 4 4 4 3
-2 -2 -1 -1 -2 -2 -3 -2 -1 -1 0 0 -0 -1 0 -1 -0 -1 -1 -2 -2 -2 -2 -1 -0 0 0 1 2 2 3 3 3 3 4 4 4 4 4 4 4 4 3 3
-2 -2 -2 -2 -1 -2 -2 -2 -2 -1 -0 0 0 -1 -0 -1 -1 -2 -1 -1 -2 -2 -3 0 0 0 1 1 1 2 2 3 3 3 3 4 4 4 4 4 3 3 3 3
-3 -4 -3 -2 -2 -2 -2 -2 -2 -1 -0 -0 -0 -1 -0 -1 -1 -1 -1 -2 -2 1 1 1 1 1 1 1 1 2 2 2 2 3 3 3 3 3 3 3 3 2 2 2
Height
1486 1491 1494 1496 1500 1503 1505 1507 1509 1508 1509 1513 1512 1513 1501 1499 1498 1498 1500 1498 1498 1496 1493 1490 1486 1481 1478 1478 1477 1477 1474 1474 1481 1463 1454 1454 1454 1453 1455 1462 1467 1464 1463 1442
1479 1484 1488 1490 1495 1498 1501 1502 1504 1506 1507 1509 1508 1500 1496 1496 1496 1496 1497 1495 1493 1490 1491 1493 1484 1479 1476 1477 1476 1475 1475 1475 1488 1468 1463 1456 1456 1450 1450 1453 1466 1463 1461 1445
1471 1477 1482 1485 1489 1493 1497 1499 1502 1505 1504 1501 1500 1498 1495 1495 1491 1492 1493 1491 1490 1490 1489 1486 1484 1478 1475 1475 1474 1474 1475 1475 1476 1486 1471 1466 1463 1453 1449 1448 1466 1457 1455 1446
1464 1470 1475 1480 1483 1487 1492 1492 1491 1491 1499 1495 1493 1494 1491 1490 1490 1490 1490 1489 1489 1488 1490 1485 1480 1479 1477 1474 1473 1473 1474 1476 1473 1469 1465 1462 1460 1456 1450 1449 1450 1457 1444 1443
1455 1464 1469 1473 1478 1482 1486 1485 1487 1487 1486 1483 1488 1491 1489 1486 1487 1488 1487 1488 1484 1485 1486 1484 1484 1481 1479 1477 1475 1472 1471 1475 1470 1470 1459 1461 1461 1455 1453 1448 1446 1446 1441 1436
1447 1454 1463 1468 1471 1475 1476 1480 1482 1483 1482 1480 1485 1484 1482 1480 1481 1482 1481 1483 1484 1483 1481 1480 1478 1478 1476 1476 1476 1475 1473 1474 1478 1475 1463 1461 1461 1447 1447 1444 1440 1439 1441 1438
1440 1447 1455 1462 1466 1468 1472 1473 1478 1481 1480 1478 1477 1475 1477 1478 1480 1482 1480 1481 1482 1481 1479 1477 1475 1474 1473 1473 1472 1473 1474 1473 1479 1479 1469 1476 1443 1438 1436 1436 1433 1436 1436 1437
1433 1441 1449 1455 1461 1464 1467 1470 1474 1476 1476 1474 1472 1472 1475 1475 1477 1480 1479 1479 1479 1479 1478 1479 1477 1476 1473 1469 1470 1471 1472 1474 1477 1477 1477 1457 1438 1440 1438 1438 1436 1437 1435 1436
1428 1435 1443 1451 1457 1461 1463 1467 1470 1473 1474 1471 1471 1470 1471 1475 1477 1479 1477 1477 1478 1479 1478 1480 1478 1478 1468 1471 1471 1470 1471 1472 1478 1478 1470 1460 1442 1440 1439 1437 1444 1438 1436 1438
1423 1430 1439 1447 1452 1456 1459 1462 1466 1470 1471 1468 1469 1468 1470 1471 1472 1475 1476 1476 1477 1478 1480 1480 1480 1477 1469 1473 1468 1473 1476 1475 1477 1479 1476 1458 1442 1440 1439 1442 1446 1440 1440 1439
1420 1427 1434 1441 1447 1452 1455 1459 1462 1465 1466 1466 1467 1467 1468 1470 1470 1473 1475 1477 1477 1479 1481 1480 1476 1475 1470 1470 1465 1468 1471 1476 1476 1475 1473 1470 1442 1442 1441 1443 1442 1441 1441 1440
1416 1422 1429 1436 1442 1447 1452 1456 1458 1461 1464 1464 1463 1465 1465 1468 1468 1469 1470 1471 1472 1472 1476 1477 1474 1473 1472 1469 1467 1460 1466 1461 1461 1463 1455 1441 1441 1441 1441 1440 1441 1441 1441 1441
1414 1418 1423 1430 1436 1442 1448 1451 1455 1458 1461 1461 1460 1460 1461 1463 1464 1466 1468 1469 1469 1470 1470 1471 1472 1473 1469 1469 1465 1455 1454 1453 1456 1453 1441 1438 1438 1439 1440 1441 1441 1441 1441 1441
1412 1413 1416 1423 1431 1438 1443 1447 1452 1455 1457 1458 1455 1454 1456 1457 1458 1462 1464 1465 1466 1468 1469 1470 1471 1471 1464 1463 1460 1459 1450 1450 1449 1448 1438 1436 1435 1436 1438 1439 1440 1441 1442 1442
1407 1408 1410 1417 1426 1434 1440 1445 1448 1452 1455 1454 1453 1453 1454 1454 1455 1458 1460 1463 1465 1466 1468 1469 1470 1465 1464 1460 1460 1456 1442 1441 1443 1440 1433 1433 1432 1433 1434 1436 1438 1439 1440 1441
1404 1402 1404 1411 1421 1429 1437 1443 1445 1446 1450 1454 1454 1453 1451 1452 1454 1457 1458 1460 1463 1465 1464 1465 1462 1461 1462 1463 1458 1434 1432 1431 1431 1431 1431 1431 1432 1433 1434 1436 1437 1438 1440 1442
1398 1395 1400 1407 1416 1424 1430 1434 1435 1439 1448 1452 1452 1450 1450 1451 1454 1456 1458 1459 1460 1463 1462 1461 1460 1459 1459 1459 1452 1428 1427 1427 1429 1430 1431 1432 1432 1432 1434 1435 1436 1438 1440 1442
1395 1396 1401 1404 1413 1422 1427 1430 1433 1438 1445 1448 1449 1448 1451 1451 1452 1455 1456 1457 1459 1460 1459 1459 1457 1458 1456 1452 1426 1425 1427 1427 1427 1427 1428 1429 1430 1431 1432 1434 1435 1437 1439 1441
1398 1397 1398 1403 1411 1417 1423 1430 1434 1438 1444 1441 1443 1445 1448 1449 1450 1452 1454 1455 1459 1458 1457 1456 1456 1452 1448 1425 1422 1422 1423 1424 1424 1424 1426 1427 1428 1430 1431 1432 1434 1436 1438 1441
1397 1397 1402 1408 1413 1418 1424 1429 1434 1438 1438 1438 1438 1440 1444 1446 1447 1451 1453 1453 1455 1460 1453 1452 1451 1440 1424 1422 1421 1419 1420 1421 1421 1422 1424 1425 1426 1427 1429 1430 1433 1436 1437 1440
1398 1397 1401 1406 1412 1417 1422 1426 1430 1432 1433 1432 1433 1435 1439 1442 1444 1447 1449 1451 1453 1460 1452 1453 1447 1434 1422 1420 1417 1414 1414 1416 1418 1420 1420 1421 1422 1424 1426 1429 1432 1435 1437 1440
1399 1399 1402 1409 1410 1414 1417 1421 1424 1424 1424 1426 1428 1432 1434 1439 1441 1442 1447 1449 1453 1456 1450 1452 1444 1424 1421 1418 1415 1413 1412 1412 1415 1417 1418 1419 1420 1422 1425 1429 1431 1434 1438 1440
1400 1400 1402 1403 1406 1407 1407 1409 1413 1415 1417 1420 1425 1430 1432 1437 1440 1442 1445 1446 1447 1448 1449 1444 1429 1422 1419 1417 1414 1413 1411 1411 1414 1416 1418 1419 1420 1422 1425 1427 1431 1434 1437 1440
1401 1402 1402 1402 1403 1402 1403 1404 1405 1410 1413 1416 1422 1427 1430 1434 1437 1439 1441 1443 1445 1450 1446 1435 1425 1421 1419 1416 1414 1413 1412 1412 1414 1416 1418 1420 1421 1422 1424 1427 1430 1433 1436 1439
1403 1402 1400 1401 1404 1405 1406 1406 1408 1410 1413 1416 1422 1427 1429 1432 1436 1437 1441 1446 1447 1442 1436 1429 1424 1421 1417 1415 1414 1414 1414 1414 1415 1417 1418 1420 1422 1423 1425 1427 1430 1433 1435 1438
1404 1405 1404 1404 1404 1407 1408 1409 1409 1411 1414 1418 1421 1425 1428 1429 1430 1436 1435 1435 1437 1434 1429 1427 1424 1421 1417 1415 1414 1415 1415 1415 1416 1418 1419 1419 1420 1422 1425 1427 1429 1432 1435 1438
1407 1409 1407 1406 1408 1409 1409 1410 1411 1413 1415 1417 1419 1422 1423 1425 1429 1429 1426 1429 1429 1428 1428 1426 1425 1423 1420 1417 1416 1416 1416 1417 1417 1418 1418 1419 1420 1421 1423 1425 1428 1431 1434 1438
Wind_Speed
26 23 20 18 14 11 12 8 2 8 13 4 4 3 5 2 3 8 4 3 5 4 4 4 3 2 2 2 3 4 3 2 4 6 2 2 2 3 4 2 4 1 2 5
28 26 22 19 18 16 16 6 5 9 13 4 3 5 4 6 4 5 4 4 6 2 2 4 3 3 3 0 2 2 4 2 4 7 5 3 3 3 3 5 2 2 1 5
31 28 24 20 20 19 18 6 3 4 11 6 3 3 5 4 7 4 6 5 4 3 4 5 5 3 1 4 3 3 1 2 3 5 5 4 6 6 2 4 3 5 4 5
32 30 27 22 22 21 19 9 5 7 4 6 6 3 3 2 3 5 3 3 7 5 4 5 1 4 5 3 2 2 3 3 2 7 8 4 5 7 6 2 3 4 5 6
37 32 29 25 21 21 20 9 5 5 4 5 8 5 4 5 5 7 5 6 6 3 5 5 5 2 1 2 4 2 2 3 3 5 3 5 6 8 7 5 4 7 5 2
38 34 32 27 24 28 13 15 7 2 5 4 5 5 6 4 5 3 3 4 2 5 5 4 8 9 7 5 1 2 1 1 3 4 4 5 6 7 7 5 5 2 1 1
38 39 33 30 27 30 16 15 9 6 4 4 5 3 6 5 5 4 2 3 2 2 6 11 11 12 12 9 8 7 2 1 2 4 4 2 5 2 5 9 4 5 2 2
35 37 35 32 28 22 27 18 12 6 2 4 3 7 5 5 2 2 4 5 5 5 4 3 4 3 3 3 4 5 4 0 2 0 2 7 2 1 1 5 4 4 4 5
36 37 36 30 28 22 25 24 17 6 2 4 3 2 5 4 3 2 3 4 5 3 1 2 1 3 3 2 2 2 1 2 2 2 2 3 2 4 4 3 2 5 5 4
31 33 34 33 28 24 21 21 21 13 4 5 3 2 3 4 3 2 2 2 2 3 1 1 3 3 1 1 2 2 0 1 4 2 3 7 4 3 4 3 2 3 3 2
39 35 31 32 28 25 21 21 18 20 7 8 4 4 4 4 3 4 5 3 1 2 1 2 2 2 2 2 3 4 5 4 4 3 3 6 2 1 1 2 2 2 4 4
21 32 30 32 30 27 23 19 18 17 13 5 6 8 9 12 7 5 9 3 4 7 2 1 0 2 1 2 3 0 2 6 3 7 5 4 5 2 4 4 6 3 6 10
12 22 30 32 32 29 26 22 18 15 12 13 19 15 17 19 15 13 6 5 6 4 3 3 1 3 2 2 4 2 3 5 3 2 2 6 9 9 7 6 6 6 6 8
14 25 33 32 33 30 28 23 19 16 5 4 3 7 9 10 15 17 16 6 6 5 3 2 2 2 3 3 3 3 4 5 4 5 8 8 12 10 12 9 7 4 7 8
12 16 31 35 35 30 26 21 19 17 7 2 2 5 8 8 9 14 15 13 8 5 3 1 3 3 1 2 1 4 7 6 4 5 4 2 3 9 10 14 10 7 11 13
11 15 36 37 37 34 30 14 21 21 19 2 1 3 4 5 7 9 11 11 10 5 4 5 4 3 2 1 3 8 16 13 14 3 2 1 8 8 9 10 10 10 13 13
7 10 25 35 36 35 24 9 6 27 19 5 2 2 1 6 7 7 7 11 5 5 3 4 3 4 6 2 4 10 10 17 16 11 8 4 8 5 8 8 10 11 13 14
4 7 26 40 35 38 26 9 8 27 17 6 2 1 1 9 5 4 7 6 6 6 3 3 3 3 3 4 14 18 8 4 12 14 13 9 7 10 9 10 11 14 15 17
4 10 36 41 33 18 21 18 12 33 8 5 4 4 3 10 4 4 5 5 1 3 2 3 3 3 5 8 11 12 10 9 8 15 12 10 9 11 12 13 14 14 17 18
8 12 10 6 12 15 24 10 18 12 8 4 3 5 3 8 5 4 4 2 2 2 3 3 3 4 21 21 21 22 15 10 12 13 13 15 16 15 14 14 13 13 16 18
4 4 4 16 30 15 7 7 6 8 3 8 6 10 5 9 3 3 4 2 2 0 3 3 2 3 2 11 10 8 8 17 15 12 9 8 13 17 17 16 15 14 15 17
1 7 12 18 7 4 4 4 4 3 5 10 7 5 5 6 4 4 3 2 2 4 3 1 3 3 10 14 11 8 6 9 15 14 11 8 11 12 16 16 16 16 16 18
2 3 6 4 3 4 7 8 3 4 7 8 7 3 6 5 3 5 2 4 4 5 1 4 4 7 17 15 9 6 3 5 9 10 9 8 9 12 15 16 16 17 18 19
1 1 3 2 3 1 2 1 3 5 10 19 19 7 4 4 3 2 4 2 3 1 3 5 2 16 16 14 6 4 2 5 7 9 9 8 9 11 13 14 15 18 20 21
2 3 2 2 4 5 4 7 8 8 16 21 10 5 3 2 3 2 3 2 4 5 4 2 12 15 12 11 3 1 1 4 7 8 8 7 8 9 12 14 15 16 19 21
3 4 2 5 2 3 4 8 9 12 20 15 4 3 3 3 3 3 6 5 5 2 2 6 12 15 14 9 3 1 1 2 5 7 8 8 9 10 11 14 16 18 19 21
2 3 7 6 8 6 3 4 7 15 14 2 3 4 4 2 2 3 3 4 3 7 8 9 11 17 20 16 9 4 2 0 2 5 7 8 9 11 13 15 17 17 17 17
Wind_Direction
215 217 221 217 206 198 184 173 184 176 166 144 226 195 203 242 236 197 257 253 233 240 300 289 293 284 217 320 314 312 312 277 275 258 257 223 289 209 139 124 330 207 242 283
214 214 217 215 199 192 179 185 166 185 175 178 219 268 241 212 222 192 216 240 223 288 278 316 264 297 199 240 333 309 332 295 338 343 345 347 298 230 158 125 78 213 71 293
212 211 212 214 198 192 187 181 142 177 198 242 206 252 244 219 219 242 233 255 291 295 263 226 278 271 237 212 216 262 120 282 175 209 235 225 303 308 227 128 131 306 234 286
211 209 208 210 198 192 187 192 225 194 190 233 207 188 253 277 236 222 237 278 225 229 273 313 266 2 325 240 248 258 181 257 285 275 260 253 264 281 299 259 154 220 299 319
205 210 208 207 200 190 195 173 198 196 253 169 156 190 247 211 245 163 230 218 261 277 233 223 284 9 322 262 310 261 167 279 315 289 297 254 265 263 277 261 195 254 259 18
207 204 209 207 203 192 190 202 217 181 263 174 128 210 219 225 164 251 220 193 273 278 263 261 272 262 250 240 275 296 273 174 5 273 332 307 293 232 190 212 225 197 332 187
206 199 202 208 210 203 197 177 179 182 256 196 198 209 192 179 206 215 206 212 199 271 303 294 272 259 257 249 246 217 304 262 151 267 349 348 249 325 224 184 235 174 165 94
205 200 202 207 211 213 200 189 184 186 224 239 270 246 204 164 191 241 222 231 233 286 314 355 338 340 324 275 238 206 189 300 301 99 261 279 301 341 238 153 265 1 218 175
201 204 203 205 208 211 208 204 202 185 133 241 296 204 182 180 188 344 225 251 252 231 121 57 311 266 252 296 286 358 39 126 123 354 303 279 290 299 320 304 296 4 47 66
205 201 203 205 206 209 209 209 208 201 204 277 248 174 176 194 154 140 162 185 153 191 109 216 222 273 207 290 256 180 128 218 196 248 278 284 260 307 329 135 217 28 46 53
208 204 202 205 205 207 206 210 203 202 199 248 241 218 203 217 197 150 160 90 242 73 179 183 258 215 259 311 225 181 176 160 209 162 219 285 191 29 23 201 87 68 70 99
195 202 203 201 204 205 205 211 206 208 215 241 231 243 243 247 240 194 180 180 175 209 128 240 148 286 283 211 283 225 245 190 195 181 218 248 196 176 154 183 146 126 114 124
248 210 204 204 203 204 207 210 204 197 220 260 260 260 259 249 236 226 191 207 195 200 208 179 214 248 138 240 246 273 245 179 226 15 280 238 225 190 188 180 153 117 119 134
262 217 203 203 201 201 202 206 201 196 166 219 243 236 237 237 227 223 219 212 194 184 200 213 197 229 192 242 259 221 219 151 200 260 275 260 243 241 211 194 185 164 145 154
258 230 211 203 197 197 204 205 208 200 206 189 274 264 248 232 222 217 215 211 208 182 153 139 233 239 205 259 10 251 195 194 177 223 227 201 190 188 195 206 208 196 176 160
256 253 202 201 195 192 186 204 220 208 211 289 285 244 233 209 203 202 200 198 197 194 185 214 235 235 211 223 241 258 223 224 223 218 222 222 152 158 181 192 187 176 173 175
268 265 207 195 195 188 180 179 187 196 188 196 267 257 188 162 166 175 181 188 190 201 213 231 231 215 195 230 242 253 262 246 230 231 217 186 188 179 170 175 170 166 164 168
260 248 206 197 186 187 184 145 149 173 170 198 181 187 230 177 166 161 168 167 183 205 233 234 208 186 208 253 245 260 267 256 229 234 226 230 206 190 184 181 177 171 169 169
187 98 173 171 175 180 186 188 152 170 181 190 165 170 203 170 150 145 160 169 134 192 214 239 162 218 225 231 256 273 263 233 241 216 217 214 200 191 185 183 179 182 174 174
211 145 137 145 158 164 143 119 170 174 214 221 208 174 169 162 157 169 125 163 198 191 235 171 204 257 258 275 281 272 259 262 232 193 204 210 210 203 199 198 192 188 181 174
204 153 89 132 142 133 156 145 162 186 202 197 201 191 145 184 137 160 202 176 153 143 250 168 260 265 267 329 315 326 255 227 237 235 237 239 236 215 203 195 191 188 184 178
237 128 138 144 149 145 146 171 163 187 201 172 162 150 135 146 150 116 173 142 85 242 150 98 262 258 345 340 335 318 303 224 218 224 223 221 205 204 201 196 190 186 182 178
172 124 167 161 164 169 177 172 172 164 165 158 145 118 134 126 125 90 123 176 211 129 186 236 236 334 342 343 332 337 335 181 197 206 200 189 189 184 190 188 186 183 181 179
15 320 150 204 171 202 104 109 114 138 145 146 145 118 134 137 123 145 165 147 109 183 234 237 293 338 335 339 332 343 23 172 189 192 190 185 180 180 181 189 191 186 184 181
40 353 60 76 100 77 108 111 114 117 153 145 114 98 119 138 118 176 100 109 240 207 234 262 340 342 340 345 336 339 74 171 173 177 181 184 188 190 187 185 188 189 188 187
44 29 2 9 90 110 76 103 117 133 148 142 124 135 152 196 147 137 210 161 221 256 232 356 15 22 19 14 25 22 28 180 194 197 195 198 194 192 192 190 189 191 195 194
36 25 30 43 70 62 77 122 153 159 152 132 141 159 186 102 158 210 185 190 177 115 59 41 35 33 34 36 39 40 24 81 194 202 204 200 197 195 196 197 192 192 195 199